Simultaneous Nadir Overpasses (SNOs) Predictions

Prediction of SNOs between METOP-B and NOAA-19 Satellite Orbit:

Table of predicted SNOs for the next 14.0 days since TLE Epoch: 9/13/2019
Index Date (METOP-B) Time (METOP-B) Lat,Lon (METOP-B) SZA (METOP-B ) Date (NOAA-19) Time (NOAA-19) Lat,Lon (NOAA-19) SZA (NOAA-19 ) Distance(km) Time Diff (sec)
1 09/20/2019 04:23:09 -79.52, -48.11 101.17 09/20/2019 04:22:02 -79.52, -48.13 101.18 0.77 67
2 09/20/2019 05:13:49 79.51, 119.21 78.85 09/20/2019 05:13:05 79.51, 119.25 78.84 1.09 44
3 09/20/2019 06:04:31 -79.50, -73.57 101.16 09/20/2019 06:04:02 -79.50, -73.41 101.16 3.25 29
4 09/20/2019 06:55:11 79.50, 93.75 78.86 09/20/2019 06:55:06 79.52, 93.68 78.87 2.29 5
5 09/20/2019 07:45:53 -79.49, -99.03 101.15 09/20/2019 07:46:03 -79.51, -98.98 101.13 2.46 10
6 09/20/2019 08:36:32 79.48, 68.29 78.86 09/20/2019 08:37:05 79.49, 68.39 78.89 2.26 33
7 09/20/2019 09:27:13 -79.51,-124.21 101.10 09/20/2019 09:28:02 -79.48,-124.26 101.11 2.48 49
8 09/20/2019 10:17:54 79.47, 42.83 78.87 09/20/2019 10:19:06 79.50, 42.82 78.92 3.46 72




NCC Satellite Simultaneous Nadir Overpasses (SNOs) Prediction Service
